{"data":{"norad_id":63908,"epoch":"2026-09-19T10:14:05.215200Z","epoch_age_seconds":239816,"freshness":"STALE","line1":"1 63908U 25095U   26262.42644925  .00015460  00000+0  56972-3 0  9998","line2":"2 63908  43.0007 162.4120 0000399 342.9714  17.1125 15.27603930 77400","mean_motion":15.2760393,"eccentricity":3.99e-5,"inclination_deg":43.0007,"raan_deg":162.412,"arg_perigee_deg":342.9714,"mean_anomaly_deg":17.1125,"bstar":0.00056972,"rev_number":7740,"period_min":94.265272019823,"perigee_km":482.70368348005,"apogee_km":483.25120041252,"semimajor_km":6861.1144419463,"source":"CELESTRAK","updated_at":"2026-09-21T09:00:35.146620Z"}}